Location: Azul
(36.7830°S, 59.8500°W)
Time: 10:17:02
(UTC-03:00)

CUTE 1.7 + AOD 2 - Visible Passes

Search period start: 22 October 2021 00:00
Search period end: 01 November 2021 00:00
Orbit: 593 x 610 km, 97.6° (Epoch: 22 October)

Date Brightness Start Highest point End Pass type
(mag) Time Alt. Az. Time Alt. Az. Time Alt. Az.
22 Oct ? 03:22:12 10° ENE 03:24:51 16° ESE 03:27:31 10° SSE visible
22 Oct ? 04:56:17 10° NNW 05:00:16 38° W 05:04:17 10° SSW visible
23 Oct ? 03:33:03 10° ENE 03:36:18 21° ESE 03:39:34 10° SSE visible
23 Oct ? 05:08:11 10° NNW 05:11:52 28° W 05:15:34 10° SW visible
24 Oct ? 03:44:07 10° NE 03:47:46 28° ESE 03:51:27 10° SSE visible
24 Oct ? 05:20:16 10° NW 05:23:30 21° W 05:26:44 10° SW visible
25 Oct ? 03:55:18 10° NE 03:59:15 38° ESE 04:03:13 10° S visible
25 Oct ? 05:32:36 10° NW 05:35:08 15° W 05:37:41 10° SW visible
26 Oct ? 04:06:37 10° NNE 04:10:45 53° ESE 04:14:56 10° S visible
27 Oct ? 04:18:02 10° NNE 04:22:16 74° ESE 04:26:32 10° S visible
28 Oct ? 04:29:33 10° N 04:33:48 80° W 04:38:06 10° SSW visible
29 Oct ? 03:08:50 10° E 03:10:08 11° ESE 03:11:26 10° SE visible
29 Oct ? 04:41:10 10° N 04:45:21 57° W 04:49:35 10° SSW visible
30 Oct ? 03:19:06 10° ENE 03:21:33 15° ESE 03:24:00 10° SSE visible
30 Oct ? 04:52:55 10° N 04:56:55 41° W 05:00:59 10° SSW visible
31 Oct ? 03:29:52 10° ENE 03:32:59 20° ESE 03:36:06 10° SSE visible
31 Oct ? 05:04:47 10° NNW 05:08:31 30° W 05:12:17 10° SW visible
